Grafton, ND

5:01 PM CST on December 04, 2016 (GMT -0600)
Grafton Municipal

Weather History for KGAF - March, 2014

Change the Weather History Date:

Friday, March 14, 2014

  Actual Average Record
Temperature  
Mean Temperature 22 °F -  
Max Temperature 37 °F 33 °F 60 °F (2016)
Min Temperature 8 °F 17 °F -25 °F (1956)
Degree Days  
Heating Degree Days 42    
Moisture  
Dew Point 15 °F    
Average Humidity 82    
Maximum Humidity 93    
Minimum Humidity 73    
Precipitation  
Precipitation 0.00 in - - ()
Sea Level Pressure  
Sea Level Pressure 29.82 in    
Wind  
Wind Speed 21 mph (NNW)    
Max Wind Speed 30 mph    
Max Gust Speed 41 mph    
Visibility 9 miles    
Events Rain , Snow    
Averages and records for this station are not official NWS values.
T = Trace of Precipitation, MM = Missing Value Source: NWS Daily Summary

Daily Weather History Graph

Daily Weather History Graph

Search for Another Location

Airport or City:

Trip Planner

Search our weather history database for the weather conditions in past years. The results will help you decide how hot, cold, wet, or windy it might be!

Date:

Astronomy

Mar. 14, 2014 Rise Set
Actual Time 7:44 AM CDT 7:33 PM CDT
Civil Twilight 7:13 AM CDT 8:04 PM CDT
Nautical Twilight 6:37 AM CDT 8:41 PM CDT
Astronomical Twilight 6:00 AM CDT 9:18 PM CDT
Moon 5:51 PM CDT (3/14) 6:32 AM CDT (3/14)
Length of Visible Light 12h 51m
Length of Day
11h 48m
Waxing Gibbous, 96% of the Moon is Illuminated
Mar 14
Waxing Gibbous
Mar 16
Full
Mar 23
Last Quarter
Mar 30
New
Apr 7
First Quarter

Hourly Weather History & Observations

Time (CDT) Temp. Windchill Dew Point Humidity Pressure Visibility Wind Dir Wind Speed Gust Speed Precip Events Conditions
12:15 AM 35.6 °F 24.5 °F 32.0 °F 87% 29.50 in 10.0 mi WNW 20.7 mph 25.3 mph N/A   Clear
12:35 AM 35.6 °F 24.2 °F 32.0 °F 87% 29.51 in 10.0 mi WNW 21.9 mph 27.6 mph N/A   Clear
12:55 AM 35.6 °F 24.2 °F 32.0 °F 87% 29.50 in 10.0 mi WNW 21.9 mph 27.6 mph N/A   Scattered Clouds
1:15 AM 37.4 °F 27.2 °F 32.0 °F 81% 29.50 in 10.0 mi WNW 19.6 mph 27.6 mph N/A   Overcast
1:35 AM 35.6 °F 25.2 °F 32.0 °F 87% 29.51 in 10.0 mi NW 18.4 mph - N/A   Overcast
1:55 AM 35.6 °F 24.8 °F 32.0 °F 87% 29.51 in 10.0 mi WNW 19.6 mph 28.8 mph N/A   Overcast
2:15 AM 35.6 °F 24.8 °F 32.0 °F 87% 29.53 in 10.0 mi NW 19.6 mph 23.0 mph N/A   Overcast
2:35 AM 35.6 °F 25.5 °F 32.0 °F 87% 29.54 in 10.0 mi NW 17.3 mph 24.2 mph N/A   Overcast
2:55 AM 35.6 °F 25.9 °F 32.0 °F 87% 29.54 in 10.0 mi NW 16.1 mph - N/A   Overcast
3:15 AM 35.6 °F 26.2 °F 32.0 °F 87% 29.55 in 10.0 mi NW 15.0 mph - N/A   Overcast
3:35 AM 35.6 °F 27.5 °F 32.0 °F 87% 29.55 in 10.0 mi NW 11.5 mph - N/A   Overcast
3:55 AM 35.6 °F 26.2 °F 32.0 °F 87% 29.56 in 10.0 mi NW 15.0 mph - N/A   Overcast
4:15 AM 35.6 °F 24.5 °F 32.0 °F 87% 29.57 in 10.0 mi North 20.7 mph 24.2 mph N/A   Overcast
4:35 AM 32.0 °F 20.1 °F 30.2 °F 93% 29.58 in 10.0 mi North 19.6 mph 28.8 mph N/A   Overcast
4:55 AM 28.4 °F 14.4 °F 26.6 °F 93% 29.59 in 10.0 mi North 23.0 mph 33.4 mph N/A   Overcast
5:15 AM 26.6 °F 11.1 °F 24.8 °F 93% 29.61 in 10.0 mi North 26.5 mph 32.2 mph N/A   Overcast
5:35 AM 24.8 °F 8.1 °F 23.0 °F 93% 29.62 in 10.0 mi North 28.8 mph 38.0 mph N/A   Overcast
5:55 AM 23.0 °F 5.7 °F 21.2 °F 93% 29.64 in 10.0 mi North 28.8 mph 32.2 mph N/A   Overcast
6:15 AM 23.0 °F 6.6 °F 19.4 °F 86% 29.65 in 10.0 mi North 25.3 mph 33.4 mph N/A   Overcast
6:35 AM 23.0 °F 6.3 °F 17.6 °F 80% 29.68 in 10.0 mi NNW 26.5 mph 35.7 mph N/A   Overcast
6:55 AM 21.2 °F 3.3 °F 15.8 °F 80% 29.69 in 10.0 mi North 28.8 mph 38.0 mph N/A   Overcast
7:15 AM 19.4 °F 1.4 °F 15.8 °F 86% 29.70 in 10.0 mi NNW 26.5 mph 36.8 mph N/A   Overcast
7:35 AM 19.4 °F 1.1 °F 14.0 °F 80% 29.71 in 10.0 mi North 27.6 mph 39.1 mph N/A   Overcast
7:55 AM 19.4 °F 0.5 °F 14.0 °F 80% 29.72 in 10.0 mi North 29.9 mph 39.1 mph N/A   Mostly Cloudy
8:15 AM 17.6 °F -1.6 °F 14.0 °F 86% 29.74 in 10.0 mi North 28.8 mph 38.0 mph N/A   Mostly Cloudy
8:35 AM 17.6 °F -1.0 °F 12.2 °F 79% 29.75 in 7.0 mi North 26.5 mph 34.5 mph N/A Snow Light Snow
8:55 AM 15.8 °F -2.3 °F 12.2 °F 86% 29.78 in 3.0 mi North 23.0 mph 34.5 mph N/A Snow Light Snow
9:15 AM 15.8 °F -4.1 °F 10.4 °F 79% 29.79 in 5.0 mi NNW 28.8 mph 33.4 mph N/A Snow Light Snow
9:35 AM 15.8 °F -3.1 °F 10.4 °F 79% 29.79 in 5.0 mi North 25.3 mph 33.4 mph N/A Snow Light Snow
9:55 AM 15.8 °F -2.7 °F 10.4 °F 79% 29.81 in 8.0 mi North 24.2 mph 34.5 mph N/A Snow Light Snow
10:15 AM 15.8 °F -3.7 °F 10.4 °F 79% 29.82 in 4.0 mi NNW 27.6 mph 32.2 mph N/A Snow Light Snow
10:35 AM 15.8 °F -4.1 °F 10.4 °F 79% 29.82 in 4.0 mi North 28.8 mph 36.8 mph N/A Snow Light Snow
10:55 AM 14.0 °F -6.5 °F 8.6 °F 79% 29.83 in 5.0 mi NNW 28.8 mph 41.4 mph N/A Snow Light Snow
11:15 AM 15.8 °F -3.7 °F 8.6 °F 73% 29.84 in 10.0 mi North 27.6 mph 39.1 mph N/A Snow Light Snow
11:35 AM 15.8 °F -3.4 °F 10.4 °F 79% 29.85 in 9.0 mi NNW 26.5 mph 32.2 mph N/A Rain Light Freezing Rain
11:55 AM 15.8 °F -2.7 °F 8.6 °F 73% 29.87 in 7.0 mi NNW 24.2 mph 34.5 mph N/A Snow Light Snow
12:15 PM 15.8 °F -2.7 °F 8.6 °F 73% 29.87 in 7.0 mi North 24.2 mph 33.4 mph N/A Rain Light Freezing Rain
12:35 PM 15.8 °F -2.7 °F 8.6 °F 73% 29.87 in 6.0 mi North 24.2 mph 29.9 mph N/A Rain Light Freezing Rain
12:55 PM 15.8 °F -3.4 °F 8.6 °F 73% 29.88 in 9.0 mi North 26.5 mph 32.2 mph N/A Rain Light Freezing Rain
1:15 PM 15.8 °F -3.1 °F 10.4 °F 79% 29.88 in 10.0 mi North 25.3 mph 32.2 mph N/A   Overcast
1:35 PM 15.8 °F -3.1 °F 10.4 °F 79% 29.88 in 10.0 mi North 25.3 mph 31.1 mph N/A Rain Light Freezing Rain
1:55 PM 15.8 °F -2.3 °F 10.4 °F 79% 29.88 in 10.0 mi North 23.0 mph - N/A   Mostly Cloudy
2:15 PM 17.6 °F 1.3 °F 10.4 °F 73% 29.89 in 9.0 mi North 19.6 mph 27.6 mph N/A Rain Light Freezing Rain
2:35 PM 17.6 °F 0.9 °F 12.2 °F 79% 29.89 in 9.0 mi North 20.7 mph 26.5 mph N/A Rain Light Freezing Rain
2:55 PM 17.6 °F 1.3 °F 12.2 °F 79% 29.90 in 8.0 mi NNW 19.6 mph 24.2 mph N/A Rain Light Freezing Rain
3:15 PM 17.6 °F 1.7 °F 14.0 °F 86% 29.91 in 10.0 mi North 18.4 mph 25.3 mph N/A Rain Light Freezing Rain
3:35 PM 17.6 °F 2.7 °F 14.0 °F 86% 29.92 in 9.0 mi North 16.1 mph 21.9 mph N/A Rain Light Freezing Rain
3:55 PM 17.6 °F 2.2 °F 14.0 °F 86% 29.92 in 10.0 mi North 17.3 mph 21.9 mph N/A Rain Light Freezing Rain
4:15 PM 17.6 °F 2.2 °F 14.0 °F 86% 29.93 in 10.0 mi North 17.3 mph 21.9 mph N/A Rain Light Freezing Rain
4:35 PM 19.4 °F 5.5 °F 14.0 °F 80% 29.93 in 10.0 mi NNW 15.0 mph - N/A   Mostly Cloudy
4:55 PM 19.4 °F 5.5 °F 14.0 °F 80% 29.95 in 10.0 mi North 15.0 mph - N/A   Mostly Cloudy
5:15 PM 19.4 °F 5.0 °F 14.0 °F 80% 29.95 in 10.0 mi NNW 16.1 mph - N/A   Mostly Cloudy
5:35 PM 19.4 °F 5.0 °F 14.0 °F 80% 29.95 in 10.0 mi North 16.1 mph - N/A   Unknown
5:55 PM 19.4 °F 5.0 °F 14.0 °F 80% 29.96 in 10.0 mi North 16.1 mph - N/A   Mostly Cloudy
6:15 PM 17.6 °F 2.7 °F 14.0 °F 86% 29.97 in 10.0 mi North 16.1 mph - N/A   Partly Cloudy
6:35 PM 17.6 °F 3.7 °F 14.0 °F 86% 29.98 in 10.0 mi North 13.8 mph - N/A   Partly Cloudy
6:55 PM 17.6 °F 3.7 °F 12.2 °F 79% 29.99 in 10.0 mi North 13.8 mph - N/A   Partly Cloudy
7:15 PM 15.8 °F -0.2 °F 10.4 °F 79% 30.00 in 10.0 mi North 17.3 mph - N/A   Clear
7:35 PM 15.8 °F 0.9 °F 10.4 °F 79% 30.01 in 10.0 mi North 15.0 mph - N/A   Clear
7:55 PM 14.0 °F -0.8 °F 8.6 °F 79% 30.02 in 10.0 mi North 13.8 mph - N/A   Clear
8:15 PM 14.0 °F -0.2 °F 8.6 °F 79% 30.03 in 10.0 mi North 12.7 mph - N/A   Clear
8:35 PM 12.2 °F -1.0 °F 8.6 °F 85% 30.04 in 10.0 mi North 10.4 mph - N/A   Clear
8:55 PM 12.2 °F -3.1 °F 6.8 °F 79% 30.05 in 10.0 mi North 13.8 mph - N/A   Clear
9:15 PM 12.2 °F -3.1 °F 6.8 °F 79% 30.05 in 10.0 mi North 13.8 mph - N/A   Clear
9:35 PM 12.2 °F -2.5 °F 5.0 °F 73% 30.06 in 10.0 mi North 12.7 mph 18.4 mph N/A   Clear
9:55 PM 12.2 °F -2.5 °F 5.0 °F 73% 30.06 in 10.0 mi North 12.7 mph - N/A   Clear
10:15 PM 10.4 °F -6.0 °F 5.0 °F 79% 30.06 in 10.0 mi North 15.0 mph - N/A   Clear
10:35 PM 10.4 °F -6.0 °F 5.0 °F 79% 30.06 in 10.0 mi North 15.0 mph - N/A   Clear
10:55 PM 10.4 °F -4.8 °F 3.2 °F 73% 30.07 in 10.0 mi North 12.7 mph - N/A   Clear
11:15 PM 8.6 °F -7.0 °F 3.2 °F 79% 30.07 in 10.0 mi North 12.7 mph - N/A   Clear
11:35 PM 8.6 °F -6.3 °F 1.4 °F 73% 30.08 in 10.0 mi North 11.5 mph 16.1 mph N/A   Clear
11:55 PM 8.6 °F -8.3 °F 1.4 °F 73% 30.08 in 10.0 mi North 15.0 mph - N/A   Clear